Showing default

HJS-6A, 63428

Orbit data source: Space-Track

HJS-6A, 63428 is a payload satellite owned by Zhongguo Xingwang (CN) in LEO that was launched on Tue, 01 Apr 2025 UTC via a CHANG ZHENG 2D launch vehicle from the Jiuquan Satellite Launch Center, China (JSC). Payload-class satellites include a variety of spacecraft equipped with specific instruments for various scientific and technological missions. These include communications satellites like Starlink; space stations such as the ISS; scientific satellites like the Hubble; Earth observation satellites from companies like Planet Labs, Umbra, and HawkEye 360; GPS; miniature CubeSats for education and research; and military/defense satellites.

Not visible in the next 10 days
Identifier
63428, 2025-067A
Orbit
LEO
Country
Flag of CNCN / PRC
Related business
Manufacturer
YINNT
Mission
Operational Civil Communications
Bus & Motor
Unknown
Mass
~300 kg wet, ~300 kg dry
Launch date (UTC)
2025-04-01 (6 months ago)
Launch vehicle
CHANG ZHENG 2D
Launch site
Jiuquan Satellite Launch Center, China (JSC)
Object type
Payload
Rocket body
Debris
Shape & HBR
Box + 2 Pan, 1.1 m
Radar Cross Section
2.320 m², Large (>1 m²)

Expand to show TLE details & history
Last TLE update: 9 hours ago

TLE from 9 hours ago
0 HJS-6A
1 63428U 25067A   25288.16053556  .02543551  11498-1  21176-2 0  9997
2 63428  54.9684  19.6001 0012404 353.2827   6.8066 16.15897168 30662
Epoch: 2025-10-15T03:51Z
TLE epoch observation values (Epoch: 2025-10-15T03:51:10.272Z)
Latitude
-0.00006°
Longitude
-62.13134°
Altitude
223.708 km
Speed
7.778 km/s
True Right ascension
01h 18m 24s
True Declination
0° 00' 00"
Sunlit
Object was in full shadow at epoch
Visualization orbit readout
Latitude
Unknown
Longitude
Unknown
Altitude
Unknown
Speed
Unknown
Apparent Right ascension
Unknown
Apparent Declination
Unknown
Sunlit
N/A
Visualization observer readout
Local Sidereal Time
07:13:09
Azimuth
Unknown
Elevation
Unknown
Doppler factor
Unknown
Orbital elements
Apogee altitude
238.878 km
Perigee altitude
222.483 km
Semi-major axis
6,608.818 km
Eccentricity
0.00124
Inclination
54.9684°
RAAN
19.6001°
Arg. of periapsis
353.2827°
True anomaly
6.82347°
Mean anomaly
6.8066°
Eccentric anomaly
6.81503°
Mean motion
4.03978 °/min
Orbital period
89.11 mins
BSTAR
0.0021176
Loading maneuver chart data...
Computing Atmospheric mass density...
Loading historical data...
Loading historical data...
Loading historical data...
Loading historical data...
Loading historical data...
Loading historical data...
Loading historical data...
Other satellites on launch #67 in the year 2025 (2025-04-01 UTC)

Documentation

Showing up to 5 results
|